TimeEST,TemperatureF,Dew PointF,Humidity,Sea Level PressureIn,VisibilityMPH,Wind Direction,Wind SpeedMPH,Gust SpeedMPH,PrecipitationIn,Events,Conditions,WindDirDegrees,DateUTC
12:02 AM,35.6,21.2,56,29.91,10.0,NNW,12.7,24.2,N/A,,Clear,330,2013-01-22 05:02:00
12:24 AM,32.0,17.6,55,29.91,10.0,NW,13.8,23.0,N/A,,Clear,310,2013-01-22 05:24:00
12:45 AM,32.0,17.6,55,29.90,10.0,NNW,17.3,20.7,N/A,,Clear,330,2013-01-22 05:45:00
1:06 AM,32.0,19.4,60,29.92,10.0,NW,15.0,24.2,N/A,,Clear,320,2013-01-22 06:06:00
1:28 AM,32.0,17.6,55,29.93,10.0,WNW,11.5,27.6,N/A,,Clear,300,2013-01-22 06:28:00
1:49 AM,32.0,17.6,55,29.95,10.0,NW,15.0,24.2,N/A,,Clear,320,2013-01-22 06:49:00
2:10 AM,32.0,17.6,55,29.96,10.0,NW,13.8,25.3,N/A,,Scattered Clouds,320,2013-01-22 07:10:00
2:53 AM,32.0,15.8,51,29.98,10.0,NNW,18.4,27.6,N/A,,Scattered Clouds,330,2013-01-22 07:53:00
3:14 AM,32.0,15.8,51,29.99,10.0,NW,17.3,26.5,N/A,,Clear,320,2013-01-22 08:14:00
3:36 AM,32.0,17.6,55,30.00,10.0,NW,17.3,29.9,N/A,,Clear,320,2013-01-22 08:36:00
3:57 AM,28.4,12.2,51,30.01,10.0,WNW,15.0,28.8,N/A,,Clear,300,2013-01-22 08:57:00
4:18 AM,28.4,12.2,51,30.02,10.0,NW,21.9,28.8,N/A,,Clear,320,2013-01-22 09:18:00
4:40 AM,28.4,14.0,55,30.03,10.0,NW,11.5,21.9,N/A,,Clear,320,2013-01-22 09:40:00
5:01 AM,28.4,12.2,51,30.03,10.0,NW,19.6,27.6,N/A,,Clear,320,2013-01-22 10:01:00
5:22 AM,28.4,10.4,47,30.05,10.0,NW,15.0,31.1,N/A,,Clear,320,2013-01-22 10:22:00
5:44 AM,26.6,8.6,47,30.05,10.0,NW,23.0,31.1,N/A,,Clear,320,2013-01-22 10:44:00
6:05 AM,26.6,10.4,51,30.05,10.0,NW,23.0,33.4,N/A,,Clear,320,2013-01-22 11:05:00
6:26 AM,26.6,8.6,47,30.08,10.0,NW,17.3,33.4,N/A,,Clear,310,2013-01-22 11:26:00
7:52 AM,23.0,5.0,46,30.14,10.0,WNW,18.4,27.6,N/A,,Clear,300,2013-01-22 12:52:00
8:13 AM,24.8,5.0,43,30.15,10.0,WNW,11.5,28.8,N/A,,Clear,300,2013-01-22 13:13:00
8:34 AM,23.0,5.0,46,30.16,10.0,WNW,15.0,23.0,N/A,,Clear,300,2013-01-22 13:34:00
8:54 AM,24.8,3.2,40,30.18,10.0,WNW,18.4,26.5,N/A,,Clear,300,2013-01-22 13:54:00
9:17 AM,24.8,3.2,40,30.19,10.0,WNW,12.7,25.3,N/A,,Clear,300,2013-01-22 14:17:00
9:38 AM,24.8,3.2,40,30.20,10.0,WNW,18.4,27.6,N/A,,Clear,300,2013-01-22 14:38:00
9:59 AM,24.8,3.2,40,30.20,10.0,WNW,15.0,23.0,N/A,,Scattered Clouds,300,2013-01-22 14:59:00
10:21 AM,24.8,5.0,43,30.21,10.0,WNW,12.7,23.0,N/A,,Scattered Clouds,290,2013-01-22 15:21:00
10:42 AM,23.0,5.0,46,30.21,10.0,NW,10.4,-,N/A,,Mostly Cloudy,320,2013-01-22 15:42:00
11:03 AM,23.0,5.0,46,30.21,10.0,NW,13.8,19.6,N/A,,Scattered Clouds,310,2013-01-22 16:03:00
11:24 AM,23.0,5.0,46,30.21,10.0,NW,15.0,20.7,N/A,,Scattered Clouds,310,2013-01-22 16:24:00
11:46 AM,23.0,5.0,46,30.20,10.0,NW,15.0,21.9,N/A,,Scattered Clouds,310,2013-01-22 16:46:00
12:07 PM,24.8,3.2,40,30.19,10.0,WNW,12.7,24.2,N/A,,Clear,300,2013-01-22 17:07:00
12:28 PM,24.8,3.2,40,30.18,10.0,NW,15.0,26.5,N/A,,Clear,310,2013-01-22 17:28:00
12:50 PM,26.6,5.0,40,30.17,10.0,NW,17.3,20.7,N/A,,Clear,320,2013-01-22 17:50:00
1:11 PM,24.8,3.2,40,30.17,10.0,WNW,16.1,23.0,N/A,,Clear,290,2013-01-22 18:11:00
1:32 PM,26.6,3.2,37,30.16,10.0,WNW,15.0,25.3,N/A,,Scattered Clouds,290,2013-01-22 18:32:00
1:52 PM,26.6,5.0,40,30.16,10.0,West,15.0,23.0,N/A,,Clear,270,2013-01-22 18:52:00
2:15 PM,26.6,5.0,40,30.17,10.0,WNW,15.0,24.2,N/A,,Clear,290,2013-01-22 19:15:00
2:36 PM,26.6,3.2,37,30.17,10.0,WNW,11.5,23.0,N/A,,Clear,300,2013-01-22 19:36:00
2:57 PM,26.6,3.2,37,30.17,10.0,WNW,9.2,20.7,N/A,,Clear,300,2013-01-22 19:57:00
3:18 PM,26.6,3.2,37,30.18,10.0,WNW,11.5,18.4,N/A,,Clear,300,2013-01-22 20:18:00
3:40 PM,26.6,3.2,37,30.18,10.0,WNW,13.8,21.9,N/A,,Clear,300,2013-01-22 20:40:00
4:01 PM,26.6,3.2,37,30.18,10.0,WNW,11.5,21.9,N/A,,Clear,290,2013-01-22 21:01:00
4:22 PM,26.6,3.2,37,30.18,10.0,WNW,13.8,24.2,N/A,,Clear,300,2013-01-22 21:22:00
4:44 PM,26.6,1.4,34,30.19,10.0,West,16.1,20.7,N/A,,Clear,280,2013-01-22 21:44:00
5:05 PM,24.8,1.4,36,30.20,10.0,WNW,9.2,-,N/A,,Clear,300,2013-01-22 22:05:00
5:26 PM,24.8,1.4,36,30.21,10.0,WNW,9.2,16.1,N/A,,Clear,290,2013-01-22 22:26:00
5:48 PM,24.8,3.2,40,30.21,10.0,WNW,12.7,19.6,N/A,,Clear,300,2013-01-22 22:48:00
6:09 PM,24.8,3.2,40,30.22,10.0,NW,12.7,18.4,N/A,,Clear,310,2013-01-22 23:09:00
6:30 PM,24.8,3.2,40,30.23,10.0,WNW,15.0,25.3,N/A,,Clear,300,2013-01-22 23:30:00
6:51 PM,24.8,3.2,40,30.24,10.0,WNW,13.8,19.6,N/A,,Clear,300,2013-01-22 23:51:00
7:13 PM,24.8,3.2,40,30.25,10.0,NW,8.1,17.3,N/A,,Clear,310,2013-01-23 00:13:00
7:34 PM,23.0,3.2,43,30.25,10.0,NW,11.5,17.3,N/A,,Clear,310,2013-01-23 00:34:00
7:55 PM,23.0,3.2,43,30.25,10.0,NW,10.4,-,N/A,,Clear,310,2013-01-23 00:55:00
8:17 PM,23.0,5.0,46,30.25,10.0,NW,8.1,18.4,N/A,,Clear,320,2013-01-23 01:17:00
8:38 PM,23.0,5.0,46,30.26,10.0,NNW,8.1,-,N/A,,Clear,330,2013-01-23 01:38:00
8:59 PM,23.0,5.0,46,30.26,10.0,NNW,13.8,19.6,N/A,,Clear,330,2013-01-23 01:59:00
9:21 PM,23.0,5.0,46,30.26,10.0,NW,10.4,-,N/A,,Clear,310,2013-01-23 02:21:00
9:42 PM,23.0,5.0,46,30.27,10.0,NW,9.2,20.7,N/A,,Clear,310,2013-01-23 02:42:00
10:03 PM,23.0,5.0,46,30.28,10.0,NW,13.8,20.7,N/A,,Clear,320,2013-01-23 03:03:00
10:25 PM,23.0,5.0,46,30.28,10.0,NNW,12.7,23.0,N/A,,Clear,330,2013-01-23 03:25:00
11:07 PM,23.0,5.0,46,30.29,10.0,NW,12.7,21.9,N/A,,Clear,320,2013-01-23 04:07:00
11:29 PM,23.0,5.0,46,30.29,10.0,NW,16.1,26.5,N/A,,Clear,320,2013-01-23 04:29:00
11:50 PM,23.0,5.0,46,30.29,10.0,NW,15.0,21.9,N/A,,Clear,320,2013-01-23 04:50:00